{"data":{"norad_id":64435,"epoch":"2026-05-25T05:32:41.347104Z","epoch_age_seconds":68867,"freshness":"FRESH","line1":"1 64435U 25129Z   26145.23103411  .00011073  00000+0  93416-3 0  9991","line2":"2 64435  70.0004 241.4152 0003439 269.3931  90.6834 14.98337559 52692","mean_motion":14.98337559,"eccentricity":0.0003439,"inclination_deg":70.0004,"raan_deg":241.4152,"arg_perigee_deg":269.3931,"mean_anomaly_deg":90.6834,"bstar":0.00093416,"rev_number":5269,"period_min":96.10651427313,"perigee_km":569.64235216237,"apogee_km":574.4226787551,"semimajor_km":6950.1695154587,"source":"CELESTRAK","updated_at":"2026-05-25T13:38:20.444974Z"}}